Simultaneous Nadir Overpasses (SNOs) Predictions

Prediction of SNOs between FY3D and AQUA Satellite Orbit:

Table of predicted SNOs for the next 14.0 days since TLE Epoch: 5/3/2025
Index Date (FY3D) Time (FY3D) Lat,Lon (FY3D) SZA (FY3D ) Date (AQUA) Time (AQUA) Lat,Lon (AQUA) SZA (AQUA ) Distance(km) Time Diff (sec)
1 05/04/2025 06:01:13 79.52, 76.95 63.66 05/04/2025 06:01:17 79.52, 77.01 63.65 1.02 4
2 05/06/2025 15:31:59 79.57, -66.09 63.04 05/06/2025 15:32:31 79.56, -66.05 63.02 0.93 32
3 05/06/2025 16:22:35 -79.32, 103.44 117.31 05/06/2025 16:21:42 -79.32, 103.37 117.30 1.34 53
4 05/09/2025 01:02:45 79.62, 150.81 62.45 05/09/2025 01:03:44 79.62, 150.80 62.44 0.14 59
5 05/09/2025 01:53:21 -79.37, -39.61 117.90 05/09/2025 01:52:55 -79.38, -39.74 117.88 2.70 26
6 05/11/2025 11:24:09 -79.49, 176.73 118.37 05/11/2025 11:24:08 -79.48, 176.79 118.38 1.39 1
7 05/13/2025 20:54:54 -79.51, 33.85 118.93 05/13/2025 20:55:18 -79.52, 33.76 118.92 2.01 24
8 05/13/2025 21:45:33 79.32,-157.12 60.81 05/13/2025 21:44:31 79.32,-157.11 60.82 0.31 62
9 05/16/2025 06:25:41 -79.61,-109.64 119.37 05/16/2025 06:26:28 -79.61,-109.63 119.37 0.34 47



Historial Predications of SNOs between FY3D and AQUA
